Regional Weather Roundup
Issued by NWS

Home | Current Version | Previous Version | Text Only | Print | Product List | Glossary On
Versions: 1 2 3 4 5 6 7 8 9 10 11 12 13 14 15 16 17 18 19 20 21 22 23 24 25 26 27 28 29 30 31 32 33 34 35 36 37 38 39 40 41 42 43 44 45 46 47 48 49 50
000
ASUS43 KIND 300509
RWRIN

WEATHER ROUNDUP FOR INDIANA
NATIONAL WEATHER SERVICE INDIANAPOLIS IN
100 AM EDT WED JUL 30 2014

NOTE: "FAIR" INDICATES FEW OR NO CLOUDS BELOW 12,000 FEET WITH NO
SIGNIFICANT WEATHER AND/OR OBSTRUCTIONS TO VISIBILITY.

* - STATION DOES NOT REPORT WEATHER SUCH AS PRECIPITATION OR FOG.

+ - STATION NOT QUALITY CONTROLLED BY THE NATIONAL WEATHER SERVICE.
    USE DATA WITH CAUTION...ESPECIALLY DEWPOINT AND RELATIVE
    HUMIDITY OBSERVATIONS.

INZ001>003-010>013-019-020-300600-
NORTHWEST INDIANA

CITY           SKY/WX    TMP DP  RH WIND       PRES   REMARKS
GARY /AIRPORT/ PTCLDY    67  59  76 N7        30.02S
KNOX *+        CLEAR     58  55  88 SW5       30.00F
LA PORTE +     PTCLDY    63  57  81 NW7       30.03R
MICHIGAN CITY+ LGT RAIN  59  55  88 NE5G22    30.02R
MONTICELLO +   CLEAR     59  58  96 CALM      30.02S
RENSSELAER +   CLEAR     55  55 100 CALM      30.03S
VALPARAISO     PTCLDY    62  58  86 W8        30.02S

$$

LMZ046-743>745-300600-
SOUTHERN LAKE MICHIGAN

STATION/POSITION TIME  TEMP WIND        PRES
                       AIR  DIR/SP/G
                 (UTC) (F)  (DEG/KT/KT) (MB)
MICHIGAN CITY    0500   63   10/ 19/ 24   N/A

$$

INZ004-005-014>016-021>024-300600-
NORTH CENTRAL INDIANA

CITY           SKY/WX    TMP DP  RH WIND       PRES   REMARKS
GOSHEN         PTCLDY    59  55  87 CALM      30.00F
LOGANSPORT +   CLEAR     55  55 100 SW3       30.03S
PERU/GRISSOM   PTCLDY    57  57 100 SW6       30.03S
ROCHESTER +    CLEAR     61  59  94 SW5       30.02F
SOUTH BEND     MOCLDY    64  56  75 NW6       30.01R
WARSAW +       CLEAR     59  55  88 CALM      30.01F

$$

INZ006>009-017-018-025>027-300600-
NORTHEAST INDIANA

CITY           SKY/WX    TMP DP  RH WIND       PRES   REMARKS
ANGOLA *+      CLOUDY    54  45  71 CALM      30.00F VSB 1/2
AUBURN +       CLEAR     57  55  94 CALM      30.02S
FORT WAYNE     PTCLDY    59  57  93 SW6       30.02S
HUNTINGTON +   PTCLDY    59  58  97 SW3       30.02S

$$

INZ028-029-035-036-043>045-051>053-300600-
WEST CENTRAL INDIANA

CITY           SKY/WX    TMP DP  RH WIND       PRES   REMARKS
GREENCASTLE +  CLEAR     57  55  94 CALM      30.07S
LAFAYETTE      RAIN      59  59 100 CALM      30.03S FOG
TERRE HAUTE    CLEAR     63  57  81 W5        30.07R

$$

INZ030>032-037>040-046>048-054>057-064-065-300600-
CENTRAL INDIANA

CITY           SKY/WX    TMP DP  RH WIND       PRES   REMARKS
CP ATTERBURY + CLOUDY    61  59  94 CALM      30.07S
INDIANAPOLIS   PTCLDY    60  58  92 SW6       30.05S
-EAGLE CREEK   CLEAR     60  59  96 CALM      30.05S
KOKOMO *+      CLEAR     59  57  94 SW3       30.03F
MARION +       CLEAR     55  54  97 SW3       30.04S
MT COMFORT *+  PTCLDY    59 N/A N/A SW3       30.05S
SHELBYVILLE    PTCLDY    62  59  90 SW5       30.05S
ZIONSVILLE +   CLEAR     59  56  89 SW5       30.06S FOG

$$

INZ033-034-041-042-049-050-058-059-300600-
EAST CENTRAL INDIANA

CITY           SKY/WX    TMP DP  RH WIND       PRES   REMARKS
MUNCIE         CLEAR     60  56  86 SW6       30.04R

$$

INZ060-061-067>069-081>083-085>088-300600-
SOUTHWEST INDIANA

CITY           SKY/WX    TMP DP  RH WIND       PRES   REMARKS
EVANSVILLE     CLEAR     64  58  80 CALM      30.09R
WASHINGTON +   CLEAR     58  58  99 CALM      30.07S

$$

INZ062-063-066-070>080-084-089>092-300600-
SOUTH CENTRAL AND SOUTHEAST INDIANA

CITY           SKY/WX    TMP DP  RH WIND       PRES   REMARKS
BEDFORD +      CLEAR     61  57  88 CALM      30.07
BLOOMINGTON    CLEAR     59  57  93 CALM      30.07S FOG

$$



USA.gov is the U.S. government's official web portal to all federal, state and local government web resources and services.